Tracking 33744 objects as of 12-Apr-2026
HD Live streaming from Space Station
objects crossing your sky now

IRIDIUM 33 DEB

Track IRIDIUM 33 DEB now!
10-day predictions


NORAD ID: 34651
Int'l Code: 1997-051KC
Perigee: 710.3 km
Apogee: 902.8 km
Inclination: 86.3 °
Period: 100.9 minutes
Semi major axis: 7177 km
RCS: 0.0077 m2 (small)
Launch date: September 14, 1997
Source: United States (US)
Launch site: TYURATAM MISSILE AND SPACE COMPLEX (TTMTR)

Note: This is SATELLITE DEBRIS
Your satellite tracking list
Your tracking list is empty




NASA's NSSDC Master Catalog

Two Line Element Set (TLE):
1 34651U 97051KC  26101.94949976  .00003860  00000-0  14155-2 0  9993
2 34651  86.2772  89.3093 0134068 175.2017 185.0498 14.27698942876109
Source of the keplerian elements: AFSPC